Regional Weather Roundup
Issued by NWS

Home | Current Version | Previous Version | Graphics & Text | Print | Product List | Glossary Off
Versions: 1 2 3 4 5 6 7 8 9 10 11 12 13 14 15 16 17 18 19 20 21 22 23 24 25 26 27 28 29 30 31 32 33 34 35 36

000
ASUS43 KDMX 271207
RWRIA

WEATHER ROUNDUP FOR IOWA
NATIONAL WEATHER SERVICE DES MOINES IA
600 AM CST SAT DEC 27 2014

NOTE: "FAIR" INDICATES FEW OR NO CLOUDS BELOW 12,000 FEET WITH NO
SIGNIFICANT WEATHER AND/OR OBSTRUCTIONS TO VISIBILITY.

* - THESE STATIONS ARE NOT NWS STATIONS...THUS NOT UNDER NWS
QUALITY CONTROL.  THEY ALSO DO NOT REPORT WEATHER SUCH
AS PRECIPITATION OR FOG.

IAZ001>003-012>014-020>022-031>034-043>046-271300-
   NORTHWEST IOWA

CITY           SKY/WX    TMP DP  RH WIND       PRES   REMARKS
CARROLL *      CLOUDY    25  21  86 NW14      30.07R WCI  13
CHEROKEE *     CLOUDY    21  20  95 NW12G18   30.11R WCI   9
DENISON *      CLOUDY    23  21  93 NW14      30.09R WCI  11
LE MARS *      CLOUDY    21  18  86 NW7       30.15R WCI  13
ORANGE CITY *  CLOUDY    21  18  86 NW9       30.11R WCI  11
SHELDON *      FLURRIES  19  18  93 NW14      30.10R WCI   6
SIOUX CITY     CLOUDY    21  17  84 NW16      30.15R WCI   7
6HR MIN TEMP:  21; 6HR MAX TEMP:  26; 6HR PCP:  0.08;

SPENCER        MIX PCPN  22  17  81 NW18G24   30.08R WCI   7
6HR MIN TEMP:  22; 6HR MAX TEMP:  27; 6HR PCP: TRACE;

STORM LAKE *   FLURRIES  21  19  93 NW16      30.08R WCI   7
$$

IAZ055>058-069>071-079>083-090>094-271300-
   SOUTHWEST IOWA

CITY           SKY/WX    TMP DP  RH WIND       PRES   REMARKS
ATLANTIC *     CLOUDY    27  23  86 NW16      30.10R WCI  14
AUDUBON *      CLEAR     27  19  74 NW9G17    30.08R WCI  17
CLARINDA *     CLOUDY    28  27  93 NW15      30.13F WCI  17
COUNCIL BLFS * CLOUDY    25  23  93 NW16G22   30.11S WCI  12
CRESTON *      CLOUDY    28  28 100 NW16G23   30.07R WCI  17
HARLAN  *      CLOUDY    25  25 100 NW16G23   30.13R WCI  12
LAMONI         CLOUDY    32  30  92 W15       30.05S WCI  22
6HR MIN TEMP:  32; 6HR MAX TEMP:  34; 6HR PCP:  0.02;

RED OAK *      CLOUDY    27  25  93 NW16G22   30.12S WCI  14
SHENANDOAH *   CLOUDY    28  25  86 NW13G20   30.16R WCI  18
$$

IAZ047>049-059>061-072>074-084-271300-
   CENTRAL IOWA

CITY           SKY/WX    TMP DP  RH WIND       PRES   REMARKS
AMES           CLOUDY    30  25  81 NW16G24   30.03R WCI  19
6HR MIN TEMP:  30; 6HR MAX TEMP:  33; 6HR PCP:  0.01;

ANKENY *       CLOUDY    30  28  93 NW18      30.03R WCI  18
CHARITON *     CLOUDY    34  32  93 W12       30.04R WCI  25
DES MOINES     CLOUDY    32  27  81 NW16      30.04R WCI  21
6HR MIN TEMP:  32; 6HR MAX TEMP:  35; 6HR PCP:  0.02;

GRINNELL*      CLOUDY    32  30  93 W16       29.99R WCI  21
KNOXVILLE *    CLOUDY    32  30  93 W17       30.02R WCI  21
MARSHALLTOWN   CLOUDY    31  29  92 W17       29.96R WCI  19
6HR MIN TEMP:  31; 6HR MAX TEMP:  34; 6HR PCP:  0.04;

PELLA *        CLOUDY    33  32  97 W13       30.04R WCI  23
PERRY *        CLOUDY    28  27  93 NW12G18   30.06R WCI  18
$$

IAZ004>006-015-016-023>025-035-036-271300-
   NORTH CENTRAL IOWA

CITY           SKY/WX    TMP DP  RH WIND       PRES   REMARKS
ALGONA *       MIX PCPN  25  23  93 NW17G26   30.04R WCI  11
CLARION *      CLOUDY    25  27 100 NW23      30.00R WCI  10
ESTHERVILLE    LGT SNOW  20  18  92 NW22G28   30.05R FOG     WCI   3
6HR MIN TEMP:  20; 6HR MAX TEMP:  26; 6HR PCP:  0.01;

FORT DODGE *   CLOUDY    25  19  80 NW10G16   30.04R WCI  15
MASON CITY     MIX PCPN  26  23  88 NW20      29.97R WCI  12
6HR MIN TEMP:  26; 6HR MAX TEMP:  30; 6HR PCP:  0.05;

FOREST CITY *  LGT SNOW  27  23  86 NW16G22   29.98R WCI  14
IOWA FALLS *   CLOUDY    28  27  93 NW18      29.98R WCI  16
$$

IAZ007>011-017>019-026>030-037>042-050>054-066-271300-
   NORTHEAST IOWA

CITY           SKY/WX    TMP DP  RH WIND       PRES   REMARKS
CEDAR RAPIDS   CLOUDY    34  33  96 W21G29    29.94R WCI  22
6HR MIN TEMP:  34; 6HR MAX TEMP:  39; 6HR PCP:  0.02;

CHARLES CITY * CLOUDY    30  30 100 NW17      29.91S WCI  18
CLINTON *      CLOUDY    48  45  87 SW17      29.93R
DECORAH *      CLOUDY    34  34 100 VRB5      29.86S FOG     WCI  30
DUBUQUE        LGT RAIN  40  40 100 SW12      29.87S FOG     WCI  33
6HR MIN TEMP:  39; 6HR MAX TEMP:  42; 6HR PCP:  0.05;

MONTICELLO *   CLOUDY    37  37 100 W15G22    29.91R WCI  28
OELWEIN *      CLOUDY    34  32  93 W16       29.90S FOG     WCI  23
WATERLOO       CLOUDY    31  30  96 W12       29.93R WCI  22
6HR MIN TEMP:  31; 6HR MAX TEMP:  34; 6HR PCP:  0.07;

$$

IAZ064-065-067-068-078-271300-
   EAST CENTRAL IOWA

CITY           SKY/WX    TMP DP  RH WIND       PRES   REMARKS
DAVENPORT      LGT RAIN  46  43  89 W25G33    29.93R FOG
6HR MIN TEMP:  43; 6HR MAX TEMP:  49; 6HR PCP:  0.04;

IOWA CITY      CLOUDY    37  34  89 W21G29    29.97R WCI  26
6HR MIN TEMP:  37; 6HR MAX TEMP:  41; 6HR PCP:  0.03;

MT. PLEASANT * CLOUDY    38  37  97 W17G26    29.99R WCI  28
MUSCATINE *    CLOUDY    41  37  87 W20G25    29.98R
QUAD CITIES    RAIN      49  47  93 W18       29.92R FOG
6HR MIN TEMP:  47; 6HR MAX TEMP:  50; 6HR PCP:  0.02;

$$

IAZ062-063-075>077-085>089-095>099-271300-
   SOUTHEAST IOWA

CITY           SKY/WX    TMP DP  RH WIND       PRES   REMARKS
BURLINGTON     CLOUDY    42  40  92 W12G21    29.98R
6HR MIN TEMP:  42; 6HR MAX TEMP:  51; 6HR PCP:  0.01;

FAIRFIELD *    CLOUDY    36  32  87 W15       30.01R WCI  26
FORT MADISON * CLOUDY    43  39  87 W18G28    30.02R
KEOKUK *       CLOUDY    43  39  87 W15       30.01R
OSKALOOSA *    CLOUDY    33  32  94 W15       30.01R WCI  23
CENTERVILLE *  PTCLDY    34  32  93 W13       30.04S WCI  25
OTTUMWA        CLOUDY    35  31  85 W16       30.00R WCI  25
6HR MIN TEMP:  34; 6HR MAX TEMP:  37; 6HR PCP:  0.02;

WASHINGTON *   CLOUDY    37  37 100 W16G23    29.98R WCI  28
$$

ABBREVIATIONS USED IN REMARKS
   TC - TEMPERATURES IN CELSIUS
  WCI - WIND CHILL INDEX
   HX - HEAT INDEX
  VSB - VISIBILITY
$$



USA.gov is the U.S. government's official web portal to all federal, state and local government web resources and services.